Satellite: PHARMSAT
Catalog number: 35002
Epoch time:      10237.91819771
Element set:     346
Inclination:      040.4678 deg
RA of node:       152.8263 deg
Eccentricity:    0.0023554
Arg of perigee:   173.9066 deg
Mean anomaly:     186.2053 deg
Mean motion:   15.42890950 rev/day
Decay rate:      3.821e-05 rev/day^2
Epoch rev:            7142
Checksum:              290

Satellite: HAWKSAT1
Catalog number: 35003
Epoch time:      10237.93239047
Element set:    0383
Inclination:      040.4590 deg
RA of node:       145.3319 deg
Eccentricity:    0.0021493
Arg of perigee:   194.2274 deg
Mean anomaly:     165.7997 deg
Mean motion:   15.46646624 rev/day
Decay rate:      8.840e-05 rev/day^2
Epoch rev:           07151
Checksum:              302

Satellite: CP6
Catalog number: 35004
Epoch time:      10237.95140227
Element set:    0369
Inclination:      040.4619 deg
RA of node:       143.6918 deg
Eccentricity:    0.0020736
Arg of perigee:   197.9064 deg
Mean anomaly:     162.1045 deg
Mean motion:   15.47729921 rev/day
Decay rate:     1.1169e-04 rev/day^2
Epoch rev:           07152
Checksum:              295

Satellite: AEROCUB3
Catalog number: 35005
Epoch time:      10238.80122311
Element set:     422
Inclination:      040.4696 deg
RA of node:       131.8709 deg
Eccentricity:    0.0020482
Arg of perigee:   229.7264 deg
Mean anomaly:     130.2227 deg
Mean motion:   15.56264430 rev/day
Decay rate:     4.4611e-04 rev/day^2
Epoch rev:            7173
Checksum:              256

Satellite: CASTOR
Catalog number: 35694
Epoch time:      10230.44082147
Element set:     655
Inclination:      051.5930 deg
RA of node:       222.0149 deg
Eccentricity:    0.0004218
Arg of perigee:   308.0851 deg
Mean anomaly:     053.0105 deg
Mean motion:   16.48877011 rev/day
Decay rate:   7.179566e-02 rev/day^2
Epoch rev:            6110
Checksum:              273

Satellite: METEOR-M
Catalog number: 35865
Epoch time:      10238.71702756
Element set:     597
Inclination:      098.7525 deg
RA of node:       291.9898 deg
Eccentricity:    0.0002519
Arg of perigee:   140.3948 deg
Mean anomaly:     219.7366 deg
Mean motion:   14.21831230 rev/day
Decay rate:       1.76e-06 rev/day^2
Epoch rev:            4874
Checksum:              331

Satellite: RS-38
Catalog number: 35869
Epoch time:      10238.68086089
Element set:     609
Inclination:      098.7515 deg
RA of node:       291.9912 deg
Eccentricity:    0.0004740
Arg of perigee:   152.8299 deg
Mean anomaly:     207.3085 deg
Mean motion:   14.21987201 rev/day
Decay rate:       1.77e-06 rev/day^2
Epoch rev:            4874
Checksum:              343

/EX


_______________________________________________
Via the Keps mailing list courtesy of AMSAT-NA
http://amsat.org/mailman/listinfo/keps

--- ViaMAIL!/WC v1.60d
 * Origin: Chowdanet (401-724-4410) telnet://chowdanet.com  (1:323/120)